| time (UTC) | temp F | wind direction | speed knots | gust knots | rain 1hr in | rain 24hr in | rain mn in | humidity % | barometer mb |
| 20260505052502 | 50 | 60 | 0.9 | 1.7 | 0.00 | 0.06 | 0.06 | 81 | 1005.8 |
| 20260505052003 | 50 | 55 | 1.7 | 1.7 | 0.00 | 0.06 | 0.06 | 81 | 1005.4 |
| 20260505051502 | 50 | 76 | 0.9 | 2.6 | 0.00 | 0.06 | 0.06 | 81 | 1005.4 |
| 20260505051002 | 50 | 102 | 0.9 | 2.6 | 0.00 | 0.06 | 0.06 | 81 | 1005.8 |
| 20260505050502 | 50 | 49 | 1.7 | 2.6 | 0.00 | 0.06 | 0.06 | 81 | 1005.4 |
| 20260505041503 | 50 | 38 | 0.9 | 2.6 | 0.00 | 0.06 | 0.06 | 80 | 1005.0 |
| 20260505041003 | 50 | 59 | 0.9 | 1.7 | 0.00 | 0.06 | 0.06 | 81 | 1004.7 |
| 20260505040503 | 50 | 58 | 0.9 | 1.7 | 0.00 | 0.06 | 0.06 | 81 | 1004.7 |
| 20260505040002 | 50 | 56 | 1.7 | 2.6 | 0.00 | 0.06 | 0.06 | 81 | 1004.4 |
| 20260505035003 | 50 | 117 | 0.9 | 2.6 | 0.00 | 0.06 | 0.06 | 80 | 1004.3 |
| 20260505034503 | 50 | 39 | 0.9 | 2.6 | 0.00 | 0.06 | 0.06 | 80 | 1004.2 |
| 20260505033502 | 50 | 14 | 1.7 | 2.6 | 0.00 | 0.06 | 0.06 | 82 | 1004.2 |
| 20260505033002 | 51 | 93 | 0.9 | 2.6 | 0.00 | 0.06 | 0.06 | 83 | 1004.4 |
| 20260505031502 | 51 | 53 | 0.9 | 1.7 | 0.00 | 0.06 | 0.06 | 84 | 1004.1 |
| 20260505031002 | 51 | 66 | 0.9 | 2.6 | 0.00 | 0.06 | 0.06 | 84 | 1004.1 |
| 20260505030502 | 51 | 40 | 0.9 | 2.6 | 0.00 | 0.06 | 0.06 | 83 | 1004.0 |
| 20260505030002 | 51 | 355 | 0.9 | 2.6 | 0.00 | 0.06 | 0.06 | 82 | 1004.1 |
| 20260505025502 | 51 | 63 | 1.7 | 2.6 | 0.00 | 0.06 | 0.06 | 83 | 1004.1 |
| 20260505024503 | 51 | 43 | 0.9 | 1.7 | 0.00 | 0.06 | 0.06 | 82 | 1003.4 |
| 20260505023502 | 51 | 48 | 0.9 | 1.7 | 0.00 | 0.06 | 0.06 | 81 | 1003.4 |
| 20260505023003 | 51 | 71 | 1.7 | 2.6 | 0.00 | 0.06 | 0.06 | 81 | 1003.1 |
| 20260505022502 | 51 | 77 | 0.9 | 2.6 | 0.00 | 0.06 | 0.06 | 80 | 1003.4 |
| 20260505022002 | 51 | 9 | 1.7 | 2.6 | 0.00 | 0.06 | 0.06 | 80 | 1003.0 |
| 20260505021502 | 51 | 23 | 1.7 | 2.6 | 0.00 | 0.06 | 0.06 | 80 | 1003.1 |
| 20260505020502 | 51 | 68 | 0.9 | 1.7 | 0.00 | 0.06 | 0.06 | 80 | 1003.4 |
| 20260505015502 | 51 | 55 | 0.9 | 1.7 | 0.00 | 0.06 | 0.06 | 80 | 1003.5 |
| 20260505014502 | 51 | 83 | 1.7 | 2.6 | 0.01 | 0.06 | 0.06 | 80 | 1003.7 |
| 20260505014002 | 52 | 114 | 0.9 | 2.6 | 0.01 | 0.06 | 0.06 | 81 | 1004.0 |
| 20260505013503 | 52 | 70 | 1.7 | 4.3 | 0.01 | 0.06 | 0.06 | 81 | 1004.0 |
| 20260505013002 | 52 | 15 | 1.7 | 4.3 | 0.02 | 0.06 | 0.06 | 80 | 1003.7 |
| 20260505012502 | 52 | 333 | 1.7 | 4.3 | 0.02 | 0.06 | 0.06 | 80 | 1003.7 |
| 20260505012003 | 52 | 13 | 1.7 | 5.2 | 0.02 | 0.06 | 0.06 | 81 | 1003.7 |
| 20260505011002 | 53 | 335 | 2.6 | 6.1 | 0.02 | 0.06 | 0.06 | 78 | 1003.5 |
| 20260505010503 | 53 | 330 | 2.6 | 4.3 | 0.02 | 0.06 | 0.06 | 77 | 1003.7 |
| 20260505010003 | 54 | 8 | 1.7 | 2.6 | 0.02 | 0.06 | 0.06 | 77 | 1003.8 |
| 20260505005502 | 54 | 12 | 1.7 | 5.2 | 0.02 | 0.06 | 0.06 | 74 | 1004.0 |
| 20260505005002 | 54 | 38 | 1.7 | 5.2 | 0.01 | 0.05 | 0.05 | 73 | 1003.8 |
| 20260505004502 | 55 | 49 | 1.7 | 4.3 | 0.02 | 0.05 | 0.05 | 71 | 1004.1 |
| 20260505004002 | 55 | 62 | 1.7 | 4.3 | 0.03 | 0.05 | 0.05 | 70 | 1004.1 |
| 20260505003502 | 55 | 13 | 1.7 | 2.6 | 0.05 | 0.05 | 0.05 | 69 | 1004.0 |
| 20260505003002 | 55 | 66 | 1.7 | 4.3 | 0.04 | 0.04 | 0.04 | 69 | 1004.0 |
| 20260505002503 | 55 | 67 | 1.7 | 4.3 | 0.04 | 0.04 | 0.04 | 69 | 1004.0 |
| 20260505002002 | 55 | 38 | 1.7 | 2.6 | 0.04 | 0.04 | 0.04 | 69 | 1003.8 |
| 20260505001502 | 56 | 79 | 0.9 | 1.7 | 0.04 | 0.04 | 0.04 | 70 | 1003.7 |
| 20260505000002 | 56 | 48 | 0.9 | 4.3 | 0.04 | 0.04 | 0.04 | 60 | 1004.1 |
| 20260504235503 | 56 | 64 | 1.7 | 4.3 | 0.04 | 0.04 | 0.04 | 56 | 1004.1 |
| 20260504235003 | 56 | 69 | 1.7 | 4.3 | 0.04 | 0.04 | 0.04 | 59 | 1004.1 |
| 20260504234002 | 58 | 89 | 0.9 | 4.3 | 0.02 | 0.02 | 0.02 | 57 | 1004.4 |
| 20260504233502 | 59 | 56 | 0.9 | 12.2 | 0.00 | 0.00 | 0.00 | 54 | 1004.3 |
| 20260504233002 | 60 | 350 | 2.6 | 13.0 | 0.00 | 0.00 | 0.00 | 52 | 1004.4 |
| 20260504232502 | 63 | 338 | 6.1 | 13.0 | 0.00 | 0.00 | 0.00 | 43 | 1004.0 |
| 20260504232003 | 64 | 313 | 2.6 | 5.2 | 0.00 | 0.00 | 0.00 | 36 | 1003.6 |
| 20260504231502 | 64 | 327 | 1.7 | 4.3 | 0.00 | 0.00 | 0.00 | 35 | 1003.2 |
| 20260504231010 | 65 | 340 | 0.9 | 2.6 | 0.00 | 0.00 | 0.00 | 34 | 1003.0 |
| 20260504230502 | 65 | 353 | 1.7 | 4.3 | 0.00 | 0.00 | 0.00 | 34 | 1003.4 |
| 20260504230003 | 66 | 13 | 0.9 | 6.1 | 0.00 | 0.00 | 0.00 | 34 | 1004.1 |
| 20260504225502 | 66 | 345 | 1.7 | 6.1 | 0.00 | 0.00 | 0.00 | 33 | 1003.6 |
| 20260504225002 | 67 | 300 | 1.7 | 6.1 | 0.00 | 0.00 | 0.00 | 32 | 1003.5 |
| 20260504224502 | 67 | 46 | 0.9 | 4.3 | 0.00 | 0.00 | 0.00 | 31 | 1003.2 |
| 20260504224002 | 68 | 3 | 1.7 | 4.3 | 0.00 | 0.00 | 0.00 | 31 | 1003.3 |
| 20260504223002 | 69 | 2 | 0.9 | 5.2 | 0.00 | 0.00 | 0.00 | 30 | 1003.4 |
| 20260504222503 | 69 | 336 | 1.7 | 7.0 | 0.00 | 0.00 | 0.00 | 31 | 1003.5 |
| 20260504222002 | 69 | 47 | 1.7 | 7.0 | 0.00 | 0.00 | 0.00 | 31 | 1003.4 |
| 20260504221502 | 69 | 352 | 1.7 | 5.2 | 0.00 | 0.00 | 0.00 | 31 | 1003.4 |
| 20260504221002 | 68 | 326 | 0.9 | 5.2 | 0.00 | 0.00 | 0.00 | 32 | 1003.6 |
| 20260504220502 | 68 | 343 | 1.7 | 5.2 | 0.00 | 0.00 | 0.00 | 32 | 1003.6 |
| 20260504220002 | 67 | 310 | 1.7 | 4.3 | 0.00 | 0.00 | 0.00 | 32 | 1004.4 |
| 20260504215502 | 66 | 353 | 1.7 | 4.3 | 0.00 | 0.00 | 0.00 | 34 | 1004.5 |
| 20260504215002 | 65 | 342 | 1.7 | 2.6 | 0.00 | 0.00 | 0.00 | 35 | 1004.7 |
| 20260504214503 | 65 | 344 | 1.7 | 2.6 | 0.00 | 0.00 | 0.00 | 35 | 1004.7 |
| 20260504214002 | 65 | 355 | 0.9 | 2.6 | 0.00 | 0.00 | 0.00 | 35 | 1004.7 |
| 20260504213502 | 65 | 35 | 0.9 | 2.6 | 0.00 | 0.00 | 0.00 | 36 | 1004.7 |
| 20260504213002 | 65 | 53 | 0.0 | 1.7 | 0.00 | 0.00 | 0.00 | 35 | 1004.7 |
| 20260504212003 | 65 | 13 | 0.9 | 5.2 | 0.00 | 0.00 | 0.00 | 36 | 1004.7 |
| 20260504211502 | 66 | 34 | 1.7 | 5.2 | 0.00 | 0.00 | 0.00 | 36 | 1004.8 |
| 20260504211002 | 66 | 336 | 1.7 | 7.0 | 0.00 | 0.00 | 0.00 | 36 | 1004.8 |
| 20260504210502 | 67 | 93 | 2.6 | 7.0 | 0.00 | 0.00 | 0.00 | 34 | 1005.1 |
| 20260504210002 | 68 | 347 | 2.6 | 6.1 | 0.00 | 0.00 | 0.00 | 32 | 1005.3 |
| 20260504205502 | 66 | 60 | 1.7 | 7.0 | 0.00 | 0.00 | 0.00 | 31 | 1005.2 |
| 20260504205003 | 65 | 174 | 1.7 | 7.0 | 0.00 | 0.00 | 0.00 | 32 | 1005.3 |
| 20260504204002 | 65 | 6 | 1.7 | 7.8 | 0.00 | 0.00 | 0.00 | 32 | 1004.8 |
| 20260504203502 | 65 | 50 | 1.7 | 5.2 | 0.00 | 0.00 | 0.00 | 32 | 1005.0 |
| 20260504203002 | 65 | 44 | 1.7 | 6.1 | 0.00 | 0.00 | 0.00 | 32 | 1005.0 |
| 20260504202502 | 65 | 345 | 2.6 | 6.1 | 0.00 | 0.00 | 0.00 | 31 | 1005.1 |
| 20260504202002 | 65 | 13 | 2.6 | 6.1 | 0.00 | 0.00 | 0.00 | 32 | 1004.9 |
| 20260504201502 | 65 | 4 | 1.7 | 10.4 | 0.00 | 0.00 | 0.00 | 32 | 1005.1 |
| 20260504201002 | 65 | 267 | 1.7 | 11.3 | 0.00 | 0.00 | 0.00 | 33 | 1005.2 |
| 20260504200002 | 65 | 13 | 4.3 | 11.3 | 0.00 | 0.00 | 0.00 | 32 | 1005.7 |
| 20260504195003 | 67 | 17 | 3.5 | 8.7 | 0.00 | 0.00 | 0.00 | 30 | 1005.8 |
| 20260504194502 | 68 | 76 | 1.7 | 6.1 | 0.00 | 0.00 | 0.00 | 27 | 1005.8 |
| 20260504194002 | 69 | 349 | 2.6 | 6.1 | 0.00 | 0.00 | 0.00 | 25 | 1005.4 |
| 20260504193502 | 69 | 357 | 1.7 | 2.6 | 0.00 | 0.00 | 0.00 | 24 | 1005.2 |
| 20260504193002 | 70 | 4 | 0.9 | 6.1 | 0.00 | 0.00 | 0.00 | 24 | 1005.2 |
| 20260504192502 | 70 | 23 | 0.9 | 8.7 | 0.00 | 0.00 | 0.00 | 24 | 1005.1 |
| 20260504192002 | 70 | 324 | 2.6 | 8.7 | 0.00 | 0.00 | 0.00 | 25 | 1005.1 |
| 20260504191002 | 71 | 337 | 2.6 | 7.0 | 0.00 | 0.00 | 0.00 | 24 | 1004.7 |
| 20260504190502 | 72 | 322 | 3.5 | 7.0 | 0.00 | 0.00 | 0.00 | 23 | 1004.5 |
| 20260504185502 | 71 | 318 | 1.7 | 7.8 | 0.00 | 0.00 | 0.00 | 22 | 1005.3 |
| 20260504185002 | 70 | 350 | 0.9 | 12.2 | 0.00 | 0.00 | 0.00 | 22 | 1005.1 |
| 20260504184502 | 72 | 354 | 4.3 | 12.2 | 0.00 | 0.00 | 0.00 | 22 | 1005.8 |
| 20260504184002 | 71 | 344 | 2.6 | 8.7 | 0.00 | 0.00 | 0.00 | 22 | 1005.4 |
| 20260504183502 | 72 | 326 | 2.6 | 7.8 | 0.00 | 0.00 | 0.00 | 23 | 1005.3 |
| 20260504183002 | 72 | 322 | 3.5 | 6.1 | 0.00 | 0.00 | 0.00 | 23 | 1005.2 |
| 20260504182502 | 72 | 329 | 4.3 | 6.1 | 0.00 | 0.00 | 0.00 | 22 | 1005.4 |
| 20260504182002 | 72 | 322 | 2.6 | 7.8 | 0.00 | 0.00 | 0.00 | 22 | 1005.2 |
| 20260504181502 | 72 | 321 | 4.3 | 10.4 | 0.00 | 0.00 | 0.00 | 22 | 1005.3 |
| 20260504180502 | 71 | 322 | 4.3 | 7.0 | 0.00 | 0.00 | 0.00 | 23 | 1005.4 |
| 20260504180002 | 71 | 312 | 4.3 | 7.8 | 0.00 | 0.00 | 0.00 | 23 | 1006.0 |
| 20260504175502 | 71 | 298 | 5.2 | 10.4 | 0.00 | 0.00 | 0.00 | 23 | 1005.9 |
| 20260504175002 | 71 | 323 | 3.5 | 10.4 | 0.00 | 0.00 | 0.00 | 23 | 1006.1 |
| 20260504174002 | 71 | 309 | 4.3 | 7.8 | 0.00 | 0.00 | 0.00 | 23 | 1006.2 |
| 20260504173502 | 71 | 310 | 4.3 | 8.7 | 0.00 | 0.00 | 0.00 | 22 | 1006.1 |
| 20260504173002 | 71 | 312 | 4.3 | 8.7 | 0.00 | 0.00 | 0.00 | 22 | 1006.0 |
| 20260504172502 | 71 | 307 | 2.6 | 8.7 | 0.00 | 0.00 | 0.00 | 23 | 1006.2 |
| 20260504172002 | 71 | 317 | 3.5 | 7.8 | 0.00 | 0.00 | 0.00 | 22 | 1006.1 |
| 20260504171501 | 71 | 311 | 2.6 | 7.0 | 0.00 | 0.00 | 0.00 | 22 | 1006.4 |
| 20260504171002 | 71 | 317 | 2.6 | 6.1 | 0.00 | 0.00 | 0.00 | 22 | 1006.4 |
| 20260504170502 | 71 | 308 | 1.7 | 7.8 | 0.00 | 0.00 | 0.00 | 22 | 1006.2 |
| 20260504151002 | 59 | 139 | 0.9 | 2.6 | 0.00 | 0.00 | 0.00 | 37 | 1007.4 |
| 20260504150501 | 59 | 140 | 0.9 | 2.6 | 0.00 | 0.00 | 0.00 | 37 | 1007.3 |
| 20260504140501 | 49 | 143 | 1.7 | 4.3 | 0.00 | 0.00 | 0.00 | 62 | 1007.1 |
| 20260504130502 | 44 | 115 | 1.7 | 4.3 | 0.00 | 0.00 | 0.00 | 70 | 1006.4 |
| 20260504110502 | 40 | 54 | 1.7 | 5.2 | 0.00 | 0.00 | 0.00 | 71 | 1004.7 |
| 20260504100502 | 42 | 98 | 1.7 | 4.3 | 0.00 | 0.00 | 0.00 | 67 | 1004.1 |
| 20260504082002 | 47 | 66 | 0.9 | 1.7 | 0.00 | 0.00 | 0.00 | 53 | 1002.8 |
| 20260504081501 | 47 | 60 | 0.9 | 1.7 | 0.00 | 0.00 | 0.00 | 53 | 1003.0 |
| 20260504080502 | 48 | 66 | 1.7 | 1.7 | 0.00 | 0.00 | 0.00 | 51 | 1003.0 |